Location: Seattle
(47.6064°N, 122.3308°W)
Time: 05:34:27
(UTC-08:00)

S-56A Canister/Altair - Pass Details

Date: 03 December 2020
Orbit: 633 x 2499 km, 38.9° (Epoch: 23 January)

Event Time Altitude Azimuth Distance (km) Brightness Sun altitude
Rises 14:48:08 0° 177° (S) 6,160 12.9 10.5°
Reaches altitude 10° 14:56:37 10° 150° (SSE) 5,001 12.0 9.6°
Maximum altitude 15:00:27 12° 134° (SE) 4,733 11.6 9.2°
Drops below altitude 10° 15:04:05 10° 118° (ESE) 4,698 11.4 8.8°
Sets 15:11:07 0° 90° (E) 5,276 11.4 8.0°
